Regional Weather Roundup
Issued by NWS Upton, NY

Current Version | Previous Version | Graphics & Text | Print | Product List | Glossary Off
Versions: 1 2 3 4 5 6 7 8 9 10 11 12 13 14 15 16 17 18 19 20 21 22 23 24 25 26 27 28 29 30 31 32 33 34 35 36 37 38 39 40 41 42 43 44 45 46 47 48 49 50
530 ASUS41 KOKX 212205 RWROKX Regional Weather Roundup National Weather Service New York NY 600 PM EDT MON MAY 21 2018 Note: "FAIR" indicates few or no clouds below 12,000 feet with no significant weather and/or obstructions to visibility. NYZ071-072-176-178-NJZ106-104-212300- New York City Metro Area CITY SKY/WX TMP DP RH WIND PRES REMARKS Central Park FAIR 73 46 38 VRB6 30.16S Bronx Bot Gard N/A 73 46 38 S9 30.14F Bronx Lehman C N/A 75 45 33 S8 N/A LaGuardia Arpt FAIR 73 47 39 S13 30.13S Queens College N/A 68 50 52 S13 N/A Kennedy Intl PTSUNNY 66 52 60 S13 30.16S Breezy Point N/A 61 N/A N/A S12 N/A Brooklyn Coll N/A 66 50 55 S12 N/A Staten Island N/A 72 50 46 SE9 N/A Newark/Liberty PTSUNNY 75 49 39 S13 30.13R Teterboro FAIR 76 46 34 S9 30.12R $$ NYZ177-179-078>081-212300- Long Island New York CITY SKY/WX TMP DP RH WIND PRES REMARKS Jones Beach N/A 61 N/A N/A S9 N/A Wantagh N/A 66 52 59 S7 N/A Hempstead N/A 66 52 59 S9 30.18S Matinecock Pt N/A 72 N/A N/A SW8 N/A Farmingdale FAIR 66 51 58 SW12 30.15S MacArthur/ISP PTSUNNY 67 52 58 SW8 30.15R Stony Brook N/A 70 52 52 S5 N/A Shirley FAIR 65 50 58 S15 30.16R Mt Sinai Harb N/A 70 N/A N/A S10 N/A Westhampton FAIR 66 44 45 SW7 30.17S East Hampton FAIR 63 47 54 S9 30.15R Southold N/A 66 50 55 S12 N/A Montauk N/A 64 51 62 VRB6 30.16R $$ NYZ052-065-067-212300- Hudson Valley CITY SKY/WX TMP DP RH WIND PRES REMARKS White Plains FAIR 73 48 41 SW7 30.13R Larchmont Harb N/A 64 N/A N/A S15 N/A Croton On Huds N/A 77 N/A N/A S2 N/A Somers N/A 77 43 29 NW3 N/A Brewster N/A 75 46 35 N5 N/A Newburgh SUNNY 77 45 31 CALM 30.13S Montgomery FAIR 77 48 35 S3 30.10S Otisville N/A 77 41 27 NW5 N/A Warwick N/A 77 46 33 SW3 N/A Suffern N/A 77 43 29 S3 N/A Poughkeepsie FAIR 77 46 33 W6 30.10S Albany FAIR 77 43 29 W10 30.11S $$ NJZ001-105-106-008-010-013-015-019>022-104-212300- New Jersey CITY SKY/WX TMP DP RH WIND PRES REMARKS Newark/Liberty PTSUNNY 75 49 39 S13 30.13R Teterboro FAIR 76 46 34 S9 30.12R Caldwell FAIR 77 48 35 S10 30.12S Somerville FAIR 77 52 41 VRB5 30.11S Linden FAIR 76 48 36 S9 30.13S Perth Amboy N/A 73 N/A N/A S9 N/A Sussex FAIR 78 45 30 VRB5 30.11S Andover N/A 77 43 29 SW5 30.12S Trenton FAIR 77 50 38 SW6 30.13S Millville FAIR 72 54 53 VRB5 30.16R Atlantic City FAIR 68 54 60 SE9 30.17S Wrightstown FAIR 71 54 54 S10 30.12 Toms River FAIR 69 50 50 SE10 30.17S Belmar FAIR 68 49 50 S9 30.17S $$ PAZ047>061-062-071-212300- Eastern Pennsylvania CITY SKY/WX TMP DP RH WIND PRES REMARKS Philadelphia PTSUNNY 77 47 34 S5 30.13S Allentown FAIR 79 49 34 CALM 30.13S Scranton FAIR 76 46 34 VRB5 30.13F $$ CTZ002-004>006-009-010-012-RIZ004-006-007-MAZ004-011-015-212300- Southern New England In CT CITY SKY/WX TMP DP RH WIND PRES REMARKS Bradley Intl PTSUNNY 78 43 28 NW9G17 30.10R Hartford FAIR 79 39 23 VRB7 30.09R Danbury FAIR 76 41 28 W5 30.13S Wtrbury/Oxford FAIR 75 39 27 NW7 30.14R Norwalk Harbor N/A 66 N/A N/A SW3 N/A Bridgeport FAIR 74 42 31 SW7 30.12S Meriden FAIR 73 46 38 S10 30.12R New Haven FAIR 70 45 40 S7 30.13R Chester FAIR 73 46 38 S7 30.13S Groton FAIR 60 51 72 S9 30.13S Willimantic FAIR 77 45 32 W3 30.10S In RI CITY SKY/WX TMP DP RH WIND PRES REMARKS Providence PTSUNNY 70 49 47 S13 30.11S Block Island N/A N/A N/A N/A MISG N/A Westerly FAIR 65 50 58 S9 30.14S In MA CITY SKY/WX TMP DP RH WIND PRES REMARKS Boston PTSUNNY 78 37 22 W14G21 30.06S Worcester FAIR 73 43 33 W12 30.11S Westfield FAIR 77 39 25 NW7 30.10R Provincetown FAIR 66 44 45 S14G20 30.10F Nantucket FAIR 59 45 59 SW9 30.14S $$ ANZ330-335-338-340-345-350-353-355-212300- Coastal Marine Observations STATION/POSITION TIME SKY/WX TEMP WIND PRES VSBY WAVE AIR SEA DIR/SP/G HT/PER (UTC) (F) (DEG/KT/KT) (MB) (MI) (FT/S) NY Harb Entrance 2150 59 56 190/ 8/ 10 1021.1 3/ 8 20 S Fire Island 2150 58 55 190/ 6/ 8 1021.4 3/ 9 23 SSW Montauk P 2150 57 54 200/ 8/ 8 1021.5 4/ 8 15 E Barnegat Li 2130 58 N/A 3/ 9 Hudson Canyon 2150 56 54 40/ 2/ 4 1021.3 3/ 8 Kings Point 2136 66 57 220/ 12/ 14 1021.5 Execution Rocks NOT AVBL Western LI Sound NOT AVBL Central LI Sound 2145 60 200/ 6/ 8 N/A 0 Robbins Reef 2148 65 160/ 16/ 18 1021.0 $$ >>>>>>>>>>>>>>>>>>>>>>>>>>>> KEY <<<<<<<<<<<<<<<<<<<<<<<<<<< > < > SKY/WX - Sky Condition/Present Weather < > TMP - Temperature in Fahrenheit < > DP - Dew Point in Fahrenheit < > RH - Relative Humidity in Percent < > WIND - Direction (from) and Speed in MPH < > PRES - Mean Sea Level Pressure (inches of Hg) < > WCI - Wind Chill Index < > VSB - Visibility in Miles < > HX - Heat Index < > TC - Temperature in Celsius < > VRB - Varibale Wind Direction < > < >>>>>>>>>>>>>>>>>>>>>>>>>>>> KEY <<<<<<<<<<<<<<<<<<<<<<<<<<<

USA.gov is the U.S. government's official web portal to all federal, state and local government web resources and services.